Voltar ao catálogo

FENGYUN 1C DEB

AtivoSSO
NORAD 33722·DEBRIS·🇨🇳 China

Lançado May 10, 1999 de Taiyuan Satellite Launch Center

Loading…

Próximas Passagens (próximas 24 horas)

TLE

AtualizadoSource: Space-Track

Época: Sep 12, 2026, 18:18 UTC

1 33722U 99025DHK 26255.76271236  .00000657  00000-0  27883-3 0  9995
2 33722  98.5660 267.3806 0157596 175.8827 184.3690 14.22054661960418

Acompanhe FENGYUN 1C DEB em tempo real com AllMySat

Download on the App Store